Miscellaneous Local Product
Issued by NWS Hastings, NE

Home | Current Version | Previous Version | Text Only | Print | Product List | Glossary Off
Versions: 1 2 3 4 5 6 7 8 9 10 11 12 13 14 15 16 17 18 19 20 21 22 23 24 25 26 27 28 29 30 31 32 33 34 35 36 37 38 39 40 41 42 43 44 45 46 47 48 49 50

000
AXUS43 KGID 311402
MISGRI

GID CWA HOURLY WEATHER ROUNDUP
NATIONAL WEATHER SERVICE HASTINGS NE
900 AM CDT MON AUG 31 2015

NOTE: "FAIR" INDICATES FEW OR NO CLOUDS BELOW 12,000 FEET WITH NO
SIGNIFICANT WEATHER AND/OR OBSTRUCTIONS TO VISIBILITY.

...SOUTH CENTRAL NEBRASKA...

CITY           SKY/WX    TMP DP  RH WIND       PRES   REMARKS
GRAND ISLAND   SUNNY     66  64  93 S9        29.95R
HASTINGS       FOG       63  63 100 S7        29.95R VSB 3/4
KEARNEY        SUNNY     63  59  88 S6        29.95R
ORD            SUNNY     65  63  93 SE5       29.90S
YORK           MOSUNNY   66  66 100 S8        29.96S FOG
AURORA         PTSUNNY   65  65 100 S7        29.95S FOG
LEXINGTON      SUNNY     65  63  93 CALM      29.95R
HOLDREGE       SUNNY     64  62  95 S6        29.95R
HEBRON         PTSUNNY   67  66  99 S8        29.96S FOG

...NEBRASKA PANHANDLE...

CITY           SKY/WX    TMP DP  RH WIND       PRES   REMARKS
CHADRON        PTSUNNY   75  54  47 SW7       29.91R
ALLIANCE       PTSUNNY   76  53  44 NW7       29.97R
SCOTTSBLUFF    LGT RAIN  69  56  62 W9        29.97R
SIDNEY         PTSUNNY   72  51  47 NW12      30.02R

...WESTERN AND NORTH CENTRAL NEBRASKA...

CITY           SKY/WX    TMP DP  RH WIND       PRES   REMARKS
VALENTINE      PTSUNNY   70  50  49 SW5       29.87R
AINSWORTH      MOSUNNY   69  56  64 SW13      29.90R
ONEILL         SUNNY     67  65  92 S9        29.90R
BROKEN BOW     SUNNY     66  63  90 S5        29.93S
IMPERIAL       SUNNY     65  53  65 SE5       29.96R
NORTH PLATTE   SUNNY     63  57  81 VRB3      29.95R
MCCOOK         SUNNY     66  58  75 SE8       29.93S

...EASTERN NEBRASKA...

CITY           SKY/WX    TMP DP  RH WIND       PRES   REMARKS
NORFOLK        SUNNY     68  65  90 S7        29.93R FOG
SO SIOUX CITY  FOG       67  64  90 S7        29.94R VSB 1/4
TEKAMAH        FOG       67  67 100 S3        29.95S VSB 1/4
COLUMBUS       SUNNY     68  61  77 S5        29.95S
ALBION         CLOUDY    65  63  94 S9        29.94R FOG
OMAHA EPPLEY   MOSUNNY   70  68  93 S5        29.96F FOG
OFFUTT AFB     PTSUNNY   68  68 100 SE5       29.96S FOG
MILLARD        FOG       67  67  98 CALM      29.96S VSB 1
LINCOLN        SUNNY     68  67  96 S7        29.97S FOG
NEBRASKA CITY  PTSUNNY   68  67  99 S3        29.98S FOG
BEATRICE       SUNNY     68  66  94 S5        29.97S FOG
FALLS CITY     MOSUNNY   71  69  93 SE5       29.97S FOG

...NORTHERN KANSAS...

CITY           SKY/WX    TMP DP  RH WIND       PRES   REMARKS
GOODLAND       SUNNY     65  54  67 NW10      29.98R
HILL CITY      SUNNY     69  64  84 SE6       29.94R
NORTON         SUNNY     68  61  77 SE10      29.93S
PHILLIPSBURG   FOG       64  64 100 E5        29.94F VSB 1/4
SMITH CENTER   PTSUNNY   64  64 100 SE7       29.95S FOG
HAYS           MOSUNNY   66  59  77 S12       29.94S
RUSSELL        SUNNY     70  67  90 S15       29.93S
CONCORDIA      MOSUNNY   70  68  93 S12       29.96S FOG
SALINA         SUNNY     71  68  90 SE7       29.96F FOG
TOPEKA         FOG       71  69  93 CALM      29.99R VSB 1



USA.gov is the U.S. government's official web portal to all federal, state and local government web resources and services.